YAOGAN-30 D

导读

YAOGAN-30 D是中国于2017年11月24日08:00发射的遥感卫星,隶属于中国“遥感”系列遥感星座。遥感卫星主要服务于科学试验、国土资源普查、农作物估产及防灾减灾等领域,该卫星运行在低地轨道,属于中国地球观测系统的组成部分,能获取地球表面遥感数据,为国家经济社会发展提供信息支撑,目前卫星仍在轨正常运行。

Basic Information
目录编号:
43028
目录名称:
YAOGAN-30 D
国际标识:
2017-075A
轨道中心:
EARTH
卫星名称:
YAOGAN-30 D
卫星全名:
--
卫星状态:
在轨 (已飞行3127 天)
发射日期:
2017-11-24 UTC
国别 :
中国 (CN)
星等 :
--
Orbit Information
数据来源 国际轨道数据 AOE轨道数据
星历时间 2026-06-17T13:08:55+0800
6小时前
查看轨道信息
2026-06-12T07:00:00+0800
5天前
查看轨道信息
半长轴 6936.324km 6936.418km
偏心率 0.0002461 0.0002683
轨道倾角 34.995° 34.996°
近地点辐角 299.008° 264.923°
升交点赤经 270.369° 302.410°
平近点角 61.038° 52.368°
近地点 556.479km 556.419km
远地点 559.895km 560.143km
周期 95.819分钟 95.821分钟
每日圈数 15.028263 15.027957
Detailed Information
使用方式:
暂无
2D Orbit Map
3D Orbit Map
Orbit Altitude Analysis Chart
Orbit Inclination Analysis Chart
Orbit Comprehensive Analysis Chart
View Comprehensive Chart